TimeEST,TemperatureF,Dew PointF,Humidity,Sea Level PressureIn,VisibilityMPH,Wind Direction,Wind SpeedMPH,Gust SpeedMPH,PrecipitationIn,Events,Conditions,WindDirDegrees,DateUTC
12:53 AM,37.9,35.1,89,30.07,10.0,WSW,8.1,-,N/A,,Scattered Clouds,250,2013-02-03 05:53:00
1:53 AM,37.9,36.0,93,30.04,10.0,WSW,8.1,-,N/A,,Mostly Cloudy,250,2013-02-03 06:53:00
2:42 AM,39.2,35.6,87,29.98,10.0,West,12.7,-,N/A,,Overcast,260,2013-02-03 07:42:00
2:53 AM,39.0,36.0,89,30.02,10.0,WSW,12.7,-,N/A,,Overcast,250,2013-02-03 07:53:00
3:25 AM,37.4,35.6,93,29.95,10.0,West,5.8,-,N/A,,Partly Cloudy,270,2013-02-03 08:25:00
3:53 AM,36.0,34.0,93,29.99,10.0,SW,5.8,-,N/A,,Clear,230,2013-02-03 08:53:00
4:53 AM,36.0,34.0,93,29.99,10.0,West,5.8,-,N/A,,Clear,260,2013-02-03 09:53:00
5:53 AM,34.0,33.1,96,29.99,8.0,WSW,6.9,-,N/A,,Clear,250,2013-02-03 10:53:00
6:53 AM,34.0,32.0,92,30.01,10.0,WSW,6.9,-,N/A,,Clear,250,2013-02-03 11:53:00
7:53 AM,35.1,30.9,85,30.02,10.0,WSW,5.8,-,N/A,,Clear,250,2013-02-03 12:53:00
8:53 AM,39.0,33.1,79,30.03,10.0,WSW,6.9,-,N/A,,Clear,240,2013-02-03 13:53:00
9:53 AM,43.0,30.9,62,30.02,10.0,SW,11.5,-,N/A,,Clear,230,2013-02-03 14:53:00
10:53 AM,46.0,30.0,54,30.01,10.0,WSW,15.0,20.7,N/A,,Partly Cloudy,250,2013-02-03 15:53:00
11:53 AM,48.9,30.0,48,29.97,10.0,West,12.7,-,N/A,,Clear,260,2013-02-03 16:53:00
12:53 PM,51.1,28.9,43,29.94,10.0,WNW,11.5,20.7,N/A,,Mostly Cloudy,290,2013-02-03 17:53:00
1:53 PM,54.0,25.0,33,29.91,10.0,West,13.8,26.5,N/A,,Mostly Cloudy,270,2013-02-03 18:53:00
2:53 PM,53.1,25.0,34,29.90,10.0,West,16.1,24.2,N/A,,Mostly Cloudy,280,2013-02-03 19:53:00
3:53 PM,54.0,25.0,33,29.91,10.0,NW,6.9,-,N/A,,Overcast,320,2013-02-03 20:53:00
4:53 PM,53.1,28.9,40,29.92,10.0,West,10.4,-,N/A,,Clear,260,2013-02-03 21:53:00
5:53 PM,50.0,30.0,46,29.96,10.0,WSW,6.9,-,N/A,,Mostly Cloudy,250,2013-02-03 22:53:00
6:53 PM,48.0,19.0,32,29.99,10.0,WNW,6.9,-,N/A,,Clear,300,2013-02-03 23:53:00
7:53 PM,45.0,24.1,44,30.02,10.0,NW,8.1,-,N/A,,Clear,310,2013-02-04 00:53:00
8:53 PM,42.1,23.0,47,30.04,10.0,WNW,5.8,-,N/A,,Clear,290,2013-02-04 01:53:00
9:53 PM,39.9,21.9,49,30.05,10.0,WNW,5.8,-,N/A,,Clear,290,2013-02-04 02:53:00
10:53 PM,39.0,21.9,50,30.04,10.0,West,4.6,-,N/A,,Clear,280,2013-02-04 03:53:00
11:53 PM,36.0,21.9,57,30.06,10.0,West,3.5,-,N/A,,Clear,260,2013-02-04 04:53:00